niederrhein-spotter.de
Homepage News Airport Weeze Airportfestival Planespotting Fotos Forum Sonstiges
 
Planespotting
· Fotopositionen
· Flugkarten
· Flugwetter
· Funkfrequenzen
 
Flugwetter
Roh-METAR
EDLV 310650Z VRB03KT CAVOK 17/14 Q1016

‹bersetzung